User: anonymous   Login
Location: Fort Wayne
(41.1310°N, 85.1290°W)
Time: 05:56:24
(UTC-05:00)
Language:

OAO 2 Rocket - Orbit

View from above orbital plane
View from above orbital plane
View from above satellite
View from above satellite

Ground track
Ground track

The orbit data is extracted from the following two-line orbital elements,

1 03598U 68110B   14326.24535545  .00000550  00000-0  13154-3 0  7670
2 03598 034.9929 232.2703 0050400 182.2529 328.1816 14.53803916429879
Epoch (UTC): 22 November 2014 05:53:18
Eccentricity: 0.0050400
inclination: 34.9929°
perigee height: 677 km
apogee height: 749 km
right ascension of ascending node: 232.2703°
argument of perigee: 182.2529°
revolutions per day: 14.53803916
mean anomaly at epoch: 328.1816°
orbit number at epoch: 42987

The dashed part of the orbit path shows where the satellite is in the earth's shadow,  

DLR